AAL280 KSAN-KDFW

Flight info

Callsign AAL280
Flight time N/A
Altitude 39000
Route ZZOOO4 GBN J50 SSO J4 INK GEEKY BOOVE7
Aircraft B772/H-SDE2E3FGHIJ5LORVWXY/LB1D1

Departure

Time 2026-04-26 23:25
Airport San Diego International Airport (KSAN)

Arrival

Time N/A
Airport Dallas Fort Worth International Airport (KDFW)
Time Latitude Longitude Altitude Speed Heading
2026-04-26 23:04 32.73251 -117.20538 34 ft 0 kts 171°
2026-04-26 23:07 32.73270 -117.20542 33 ft 2 kts 171°
2026-04-26 23:07 32.73285 -117.20545 33 ft 2 kts 171°
2026-04-26 23:08 32.73300 -117.20548 33 ft 2 kts 171°
2026-04-26 23:08 32.73311 -117.20551 33 ft 0 kts 171°
2026-04-26 23:08 32.73324 -117.20554 33 ft 2 kts 152°
2026-04-26 23:08 32.73335 -117.20565 33 ft 2 kts 127°
2026-04-26 23:09 32.73342 -117.20580 34 ft 2 kts 104°
2026-04-26 23:09 32.73344 -117.20598 34 ft 2 kts 81°
2026-04-26 23:09 32.73339 -117.20615 34 ft 2 kts 57°
2026-04-26 23:09 32.73329 -117.20628 34 ft 2 kts 34°
2026-04-26 23:10 32.73325 -117.20631 34 ft 0 kts 26°
2026-04-26 23:11 32.73317 -117.20635 34 ft 0 kts 25°
2026-04-26 23:12 32.73323 -117.20631 34 ft 2 kts 26°
2026-04-26 23:12 32.73346 -117.20618 34 ft 5 kts 28°
2026-04-26 23:12 32.73388 -117.20591 34 ft 10 kts 27°
2026-04-26 23:12 32.73476 -117.20538 34 ft 15 kts 30°
2026-04-26 23:13 32.73553 -117.20449 34 ft 13 kts 47°
2026-04-26 23:13 32.73582 -117.20347 34 ft 13 kts 96°
2026-04-26 23:13 32.73556 -117.20215 34 ft 22 kts 105°
2026-04-26 23:13 32.73496 -117.19970 34 ft 35 kts 106°
2026-04-26 23:14 32.73426 -117.19691 34 ft 34 kts 107°
2026-04-26 23:14 32.73356 -117.19418 34 ft 36 kts 107°
2026-04-26 23:14 32.73286 -117.19128 34 ft 35 kts 106°
2026-04-26 23:14 32.73226 -117.18848 34 ft 34 kts 102°
2026-04-26 23:15 32.73162 -117.18587 34 ft 32 kts 106°
2026-04-26 23:15 32.73101 -117.18339 34 ft 30 kts 107°
2026-04-26 23:15 32.73039 -117.18101 34 ft 29 kts 107°
2026-04-26 23:15 32.72979 -117.17877 34 ft 28 kts 108°
2026-04-26 23:16 32.72950 -117.17693 34 ft 6 kts 84°
2026-04-26 23:16 32.72955 -117.17667 34 ft 0 kts 75°
2026-04-26 23:24 32.72961 -117.17640 34 ft 10 kts 75°
2026-04-26 23:24 32.73021 -117.17608 34 ft 11 kts 314°
2026-04-26 23:24 32.73043 -117.17676 34 ft 4 kts 287°
2026-04-26 23:24 32.73045 -117.17685 34 ft 9 kts 287°
2026-04-26 23:25 32.73138 -117.18065 34 ft 85 kts 285°
2026-04-26 23:25 32.73366 -117.19012 35 ft 150 kts 286°
2026-04-26 23:25 32.73683 -117.20348 319 ft 178 kts 285°
2026-04-26 23:25 32.74130 -117.21684 1102 ft 184 kts 292°
2026-04-26 23:26 32.74556 -117.23185 1917 ft 190 kts 285°
2026-04-26 23:26 32.74848 -117.24508 3200 ft 169 kts 285°
2026-04-26 23:26 32.75160 -117.25918 3743 ft 188 kts 285°
2026-04-26 23:26 32.75506 -117.27486 4345 ft 206 kts 285°
2026-04-26 23:27 32.75877 -117.29180 5109 ft 222 kts 284°
2026-04-26 23:27 32.76267 -117.30959 6015 ft 231 kts 284°
2026-04-26 23:27 32.76586 -117.32809 7053 ft 234 kts 271°
2026-04-26 23:27 32.76455 -117.34070 7705 ft 238 kts 255°
2026-04-26 23:28 32.75186 -117.36208 8946 ft 252 kts 219°
2026-04-26 23:28 32.73522 -117.36962 9793 ft 268 kts 188°
2026-04-26 23:28 32.71664 -117.36552 10625 ft 284 kts 155°
2026-04-26 23:28 32.70149 -117.35023 11466 ft 294 kts 134°
2026-04-26 23:29 32.69019 -117.32954 12083 ft 313 kts 111°
2026-04-26 23:29 32.68682 -117.30324 12537 ft 333 kts 89°
2026-04-26 23:29 32.68758 -117.27514 13074 ft 351 kts 86°
2026-04-26 23:29 32.68879 -117.24536 13652 ft 369 kts 86°
2026-04-26 23:30 32.69007 -117.21462 14234 ft 386 kts 86°
2026-04-26 23:30 32.69142 -117.18193 14814 ft 404 kts 86°
2026-04-26 23:30 32.69281 -117.14799 15384 ft 421 kts 87°
2026-04-26 23:30 32.69424 -117.11294 16132 ft 432 kts 87°
2026-04-26 23:31 32.69567 -117.07748 16881 ft 442 kts 87°
2026-04-26 23:31 32.69716 -117.04029 17651 ft 452 kts 87°
2026-04-26 23:31 32.69864 -117.00304 18401 ft 461 kts 88°
2026-04-26 23:31 32.70013 -116.96489 19152 ft 470 kts 88°
2026-04-26 23:32 32.70168 -116.92545 19922 ft 478 kts 88°
2026-04-26 23:32 32.70320 -116.88615 20668 ft 486 kts 88°
2026-04-26 23:32 32.70474 -116.84584 21332 ft 495 kts 89°
2026-04-26 23:32 32.70631 -116.80463 22000 ft 504 kts 89°
2026-04-26 23:33 32.70788 -116.76294 22747 ft 511 kts 89°
2026-04-26 23:33 32.70946 -116.72068 23430 ft 518 kts 89°
2026-04-26 23:33 32.71104 -116.67786 24076 ft 526 kts 90°
2026-04-26 23:33 32.71264 -116.63412 24672 ft 535 kts 89°
2026-04-26 23:34 32.71425 -116.58970 25333 ft 541 kts 89°
2026-04-26 23:34 32.71587 -116.54481 25958 ft 547 kts 89°
2026-04-26 23:34 32.71749 -116.49933 26491 ft 554 kts 90°
2026-04-26 23:34 32.71910 -116.45349 26971 ft 561 kts 90°
2026-04-26 23:35 32.72073 -116.40688 27538 ft 566 kts 89°
2026-04-26 23:35 32.72234 -116.36019 28034 ft 572 kts 90°
2026-04-26 23:35 32.72395 -116.31301 28433 ft 579 kts 90°
2026-04-26 23:35 32.72558 -116.26466 28791 ft 587 kts 91°
2026-04-26 23:36 32.72719 -116.21639 29238 ft 591 kts 91°
2026-04-26 23:36 32.72883 -116.16707 29792 ft 593 kts 90°
2026-04-26 23:36 32.73042 -116.11847 30437 ft 592 kts 91°
2026-04-26 23:36 32.73203 -116.06917 31204 ft 588 kts 91°
2026-04-26 23:37 32.73357 -116.02125 31958 ft 584 kts 91°
2026-04-26 23:37 32.73511 -115.97292 32651 ft 581 kts 91°
2026-04-26 23:37 32.73660 -115.92536 33219 ft 580 kts 91°
2026-04-26 23:37 32.73808 -115.87754 33738 ft 579 kts 91°
2026-04-26 23:38 32.73954 -115.82980 34163 ft 579 kts 91°
2026-04-26 23:38 32.74097 -115.78239 34533 ft 579 kts 91°
2026-04-26 23:38 32.74239 -115.73470 34895 ft 578 kts 91°
2026-04-26 23:38 32.74380 -115.68662 35281 ft 577 kts 92°
2026-04-26 23:39 32.74519 -115.63890 35628 ft 577 kts 91°
2026-04-26 23:39 32.74655 -115.59105 35971 ft 578 kts 92°
2026-04-26 23:39 32.74789 -115.54345 36257 ft 578 kts 91°
2026-04-26 23:39 32.74922 -115.49591 36523 ft 579 kts 91°
2026-04-26 23:40 32.75043 -115.44791 36782 ft 580 kts 92°
2026-04-26 23:40 32.75158 -115.39986 37057 ft 580 kts 92°
2026-04-26 23:40 32.75270 -115.35216 37362 ft 579 kts 92°
2026-04-26 23:40 32.75382 -115.30382 37549 ft 581 kts 92°
2026-04-26 23:41 32.75491 -115.25564 37593 ft 585 kts 92°
2026-04-26 23:41 32.75707 -115.15902 37971 ft 585 kts 92°
2026-04-26 23:41 32.75813 -115.11070 38252 ft 584 kts 92°
2026-04-26 23:42 32.75917 -115.06224 38440 ft 583 kts 92°
2026-04-26 23:42 32.76118 -114.96577 38812 ft 584 kts 92°
2026-04-26 23:42 32.76215 -114.91794 38856 ft 588 kts 92°
2026-04-26 23:43 32.76407 -114.82016 38860 ft 596 kts 92°
2026-04-26 23:43 32.76595 -114.72022 38881 ft 605 kts 92°
2026-04-26 23:44 32.76777 -114.62002 38876 ft 613 kts 92°
2026-04-26 23:44 32.76936 -114.51820 38888 ft 618 kts 92°
2026-04-26 23:45 32.77074 -114.41573 38892 ft 621 kts 92°
2026-04-26 23:45 32.77206 -114.31323 38874 ft 622 kts 93°
2026-04-26 23:46 32.77330 -114.21011 38870 ft 622 kts 93°
2026-04-26 23:46 32.77445 -114.10731 38868 ft 622 kts 93°
2026-04-26 23:47 32.77554 -114.00502 38859 ft 622 kts 92°
2026-04-26 23:47 32.78570 -113.90216 38866 ft 627 kts 82°
2026-04-26 23:48 32.80040 -113.79999 38874 ft 627 kts 82°
2026-04-26 23:48 32.81511 -113.69739 38882 ft 627 kts 82°
2026-04-26 23:49 32.82969 -113.59482 38876 ft 628 kts 82°
2026-04-26 23:49 32.84414 -113.49246 38882 ft 628 kts 82°
2026-04-26 23:50 32.85852 -113.38980 38891 ft 629 kts 82°
2026-04-26 23:50 32.87283 -113.28704 38851 ft 628 kts 83°
2026-04-26 23:51 32.88702 -113.18447 38850 ft 628 kts 83°
2026-04-26 23:51 32.90115 -113.08168 38859 ft 627 kts 83°
2026-04-26 23:52 32.91518 -112.97897 38867 ft 627 kts 83°
2026-04-26 23:52 32.92910 -112.87637 38869 ft 628 kts 83°
2026-04-26 23:53 32.94292 -112.77387 38873 ft 628 kts 83°
2026-04-26 23:53 32.95671 -112.67094 38870 ft 628 kts 82°
2026-04-26 23:54 32.97043 -112.56861 38899 ft 629 kts 82°
2026-04-26 23:54 32.98427 -112.46547 38899 ft 629 kts 82°
2026-04-26 23:55 32.99806 -112.36272 38877 ft 629 kts 82°
2026-04-26 23:55 33.01190 -112.25954 38861 ft 628 kts 83°
2026-04-26 23:56 33.02565 -112.15697 38867 ft 629 kts 82°
2026-04-26 23:56 33.03951 -112.05366 38877 ft 629 kts 83°
2026-04-26 23:57 33.05331 -111.95069 38878 ft 630 kts 82°
2026-04-26 23:57 33.06712 -111.84770 38887 ft 629 kts 82°
2026-04-26 23:58 33.08098 -111.74435 38884 ft 630 kts 82°
2026-04-26 23:58 33.09484 -111.64091 38886 ft 629 kts 82°
2026-04-26 23:59 33.10857 -111.53843 38886 ft 629 kts 82°
2026-04-26 23:59 33.12240 -111.43524 38891 ft 629 kts 82°
2026-04-27 00:00 33.13619 -111.33231 38895 ft 628 kts 83°
2026-04-27 00:00 33.14995 -111.22958 38900 ft 627 kts 83°
2026-04-27 00:01 33.16376 -111.12650 38916 ft 627 kts 83°
2026-04-27 00:01 33.17751 -111.02377 38929 ft 627 kts 83°
2026-04-27 00:02 33.19130 -110.92082 38939 ft 627 kts 82°
2026-04-27 00:02 33.20508 -110.81782 38962 ft 628 kts 82°
2026-04-27 00:03 33.21893 -110.71432 38985 ft 629 kts 82°
2026-04-27 00:03 33.23275 -110.61101 38977 ft 629 kts 82°
2026-04-27 00:04 33.24652 -110.50807 38970 ft 630 kts 82°
2026-04-27 00:04 33.26041 -110.40429 38961 ft 631 kts 82°
2026-04-27 00:05 33.27416 -110.30145 38942 ft 630 kts 83°
2026-04-27 00:05 33.28805 -110.19754 38952 ft 629 kts 82°
2026-04-27 00:06 33.30187 -110.09422 38971 ft 629 kts 83°
2026-04-27 00:06 33.31566 -109.99107 38986 ft 629 kts 82°
2026-04-27 00:07 33.32952 -109.88738 38992 ft 630 kts 82°
2026-04-27 00:07 33.34335 -109.78387 38998 ft 629 kts 82°
2026-04-27 00:08 33.35717 -109.68046 39024 ft 630 kts 82°
2026-04-27 00:08 33.37100 -109.57699 39030 ft 629 kts 82°
2026-04-27 00:09 33.38492 -109.47271 39025 ft 630 kts 82°
2026-04-27 00:09 33.39866 -109.36983 39035 ft 630 kts 81°
2026-04-27 00:10 33.41256 -109.26578 39026 ft 628 kts 82°
2026-04-27 00:10 33.42628 -109.16301 39024 ft 628 kts 82°
2026-04-27 00:11 33.44013 -109.05929 39031 ft 628 kts 82°
2026-04-27 00:11 33.45395 -108.95569 39042 ft 628 kts 82°
2026-04-27 00:12 33.46772 -108.85252 39049 ft 628 kts 82°
2026-04-27 00:12 33.48142 -108.74985 39063 ft 628 kts 82°
2026-04-27 00:13 33.49529 -108.64591 39057 ft 628 kts 82°
2026-04-27 00:13 33.50906 -108.54265 39060 ft 628 kts 82°
2026-04-27 00:14 33.52286 -108.43917 39082 ft 628 kts 82°
2026-04-27 00:14 33.53670 -108.33536 39083 ft 628 kts 83°
2026-04-27 00:15 33.55044 -108.23232 39081 ft 627 kts 82°
2026-04-27 00:15 33.56420 -108.12913 39050 ft 627 kts 82°
2026-04-27 00:16 33.57797 -108.02579 39067 ft 627 kts 82°
2026-04-27 00:16 33.59179 -107.92208 39079 ft 628 kts 82°
2026-04-27 00:17 33.60549 -107.81921 39075 ft 627 kts 83°
2026-04-27 00:17 33.61932 -107.71542 39074 ft 627 kts 82°
2026-04-27 00:18 33.63308 -107.61210 39056 ft 627 kts 82°
2026-04-27 00:18 33.64679 -107.50923 39093 ft 626 kts 82°
2026-04-27 00:19 33.66046 -107.40653 39053 ft 626 kts 82°
2026-04-27 00:19 33.67421 -107.30326 39024 ft 625 kts 83°
2026-04-27 00:20 33.68794 -107.20015 38993 ft 624 kts 83°
2026-04-27 00:20 33.70161 -107.09738 38989 ft 623 kts 83°
2026-04-27 00:21 33.71528 -106.99472 38973 ft 622 kts 83°
2026-04-27 00:21 33.72898 -106.89174 38967 ft 621 kts 82°
2026-04-27 00:22 33.74265 -106.78902 38969 ft 622 kts 83°
2026-04-27 00:22 33.75634 -106.68610 38968 ft 623 kts 82°
2026-04-27 00:23 33.77004 -106.58307 38993 ft 623 kts 82°
2026-04-27 00:23 33.78364 -106.48074 38989 ft 624 kts 82°
2026-04-27 00:24 33.79742 -106.37708 39006 ft 625 kts 82°
2026-04-27 00:24 33.81114 -106.27391 38989 ft 624 kts 83°
2026-04-27 00:25 33.82483 -106.17088 39002 ft 624 kts 83°
2026-04-27 00:25 33.83852 -106.06790 39001 ft 625 kts 83°
2026-04-27 00:26 33.85225 -105.96452 39009 ft 626 kts 83°
2026-04-27 00:26 33.86598 -105.86112 39017 ft 625 kts 83°
2026-04-27 00:27 33.87978 -105.75723 39023 ft 624 kts 83°
2026-04-27 00:27 33.89346 -105.65428 39009 ft 622 kts 83°
2026-04-27 00:28 33.90706 -105.55187 38995 ft 621 kts 83°
2026-04-27 00:28 33.92071 -105.44902 38994 ft 620 kts 82°
2026-04-27 00:29 33.93429 -105.34676 38990 ft 618 kts 83°
2026-04-27 00:29 33.94780 -105.24492 38951 ft 615 kts 83°
2026-04-27 00:30 33.96135 -105.14288 38920 ft 613 kts 83°
2026-04-27 00:30 33.97478 -105.04166 38904 ft 612 kts 82°
2026-04-27 00:31 33.98817 -104.94074 38930 ft 611 kts 83°
2026-04-27 00:31 34.00158 -104.83964 38901 ft 611 kts 82°
2026-04-27 00:32 34.01503 -104.73817 38909 ft 612 kts 83°
2026-04-27 00:32 34.02846 -104.63692 38923 ft 613 kts 82°
2026-04-27 00:33 34.04198 -104.53488 38893 ft 614 kts 82°
2026-04-27 00:33 34.05539 -104.43373 38899 ft 615 kts 82°
2026-04-27 00:34 34.06895 -104.33142 38893 ft 616 kts 83°
2026-04-27 00:34 34.08244 -104.22959 38864 ft 616 kts 82°
2026-04-27 00:35 34.09595 -104.12758 38890 ft 617 kts 82°
2026-04-27 00:35 34.10954 -104.02502 38909 ft 617 kts 82°
2026-04-27 00:36 34.12302 -103.92320 38897 ft 617 kts 82°
2026-04-27 00:36 34.13659 -103.82075 38904 ft 616 kts 82°
2026-04-27 00:37 34.15011 -103.71866 38896 ft 616 kts 81°
2026-04-27 00:37 34.16357 -103.61691 38898 ft 616 kts 81°
2026-04-27 00:38 34.17713 -103.51450 38901 ft 616 kts 82°
2026-04-27 00:38 34.19060 -103.41267 38893 ft 616 kts 82°
2026-04-27 00:39 34.20415 -103.31029 38863 ft 616 kts 82°
2026-04-27 00:39 34.21768 -103.20798 38868 ft 615 kts 82°
2026-04-27 00:40 34.23120 -103.10579 38855 ft 614 kts 82°
2026-04-27 00:40 34.24464 -103.00414 38857 ft 614 kts 81°
2026-04-27 00:41 34.25814 -102.90202 38866 ft 614 kts 81°
2026-04-27 00:41 34.27161 -102.80010 38869 ft 615 kts 81°
2026-04-27 00:42 34.28504 -102.69855 38866 ft 615 kts 81°
2026-04-27 00:42 34.29860 -102.59592 38866 ft 615 kts 81°
2026-04-27 00:43 34.31203 -102.49432 38865 ft 615 kts 81°
2026-04-27 00:43 34.32555 -102.39199 38853 ft 615 kts 81°
2026-04-27 00:44 34.33911 -102.28928 38832 ft 614 kts 81°
2026-04-27 00:44 34.35255 -102.18752 38828 ft 614 kts 81°
2026-04-27 00:45 34.36603 -102.08546 38836 ft 613 kts 81°
2026-04-27 00:45 34.37950 -101.98346 38836 ft 613 kts 81°
2026-04-27 00:46 34.39286 -101.88223 38829 ft 613 kts 81°
2026-04-27 00:46 34.40638 -101.77978 38817 ft 613 kts 80°
2026-04-27 00:47 34.41982 -101.67796 38821 ft 613 kts 80°
2026-04-27 00:47 34.43330 -101.57584 38824 ft 613 kts 80°
2026-04-27 00:48 34.44678 -101.47359 38816 ft 614 kts 80°
2026-04-27 00:48 34.46026 -101.37143 38812 ft 613 kts 80°
2026-04-27 00:49 34.47366 -101.26985 38788 ft 613 kts 81°
2026-04-27 00:49 34.48716 -101.16745 38782 ft 612 kts 81°
2026-04-27 00:50 34.50728 -101.01485 38741 ft 612 kts 80°
2026-04-27 00:51 34.52066 -100.91331 38746 ft 613 kts 80°
2026-04-27 00:51 34.53418 -100.81071 38735 ft 612 kts 80°
2026-04-27 00:52 34.54758 -100.70908 38722 ft 612 kts 80°
2026-04-27 00:52 34.56103 -100.60697 38719 ft 612 kts 79°
2026-04-27 00:53 34.57452 -100.50455 38737 ft 613 kts 80°
2026-04-27 00:53 34.58791 -100.40289 38716 ft 613 kts 79°
2026-04-27 00:54 34.60140 -100.30046 38685 ft 613 kts 80°
2026-04-27 00:54 34.61489 -100.19796 38683 ft 612 kts 80°
2026-04-27 00:55 34.62828 -100.09628 38691 ft 612 kts 80°
2026-04-27 00:55 34.64180 -99.99351 38680 ft 612 kts 80°
2026-04-27 00:56 34.65525 -99.89133 38675 ft 611 kts 79°
2026-04-27 00:56 34.66870 -99.78910 38674 ft 611 kts 80°
2026-04-27 00:57 34.68205 -99.68761 38674 ft 609 kts 79°
2026-04-27 00:57 34.69546 -99.58570 38705 ft 608 kts 80°
2026-04-27 00:58 34.70874 -99.48467 38692 ft 607 kts 79°
2026-04-27 00:58 34.72212 -99.38294 38692 ft 606 kts 80°
2026-04-27 00:59 34.73534 -99.28238 38666 ft 604 kts 80°
2026-04-27 00:59 34.74858 -99.18166 38664 ft 603 kts 79°
2026-04-27 01:00 34.76184 -99.08076 38648 ft 601 kts 79°
2026-04-27 01:00 34.77496 -98.98087 38694 ft 600 kts 79°
2026-04-27 01:01 34.78809 -98.88101 38706 ft 599 kts 80°
2026-04-27 01:01 34.80123 -98.78095 38713 ft 598 kts 80°
2026-04-27 01:02 34.81438 -98.68089 38726 ft 598 kts 80°
2026-04-27 01:02 34.82754 -98.58067 38738 ft 597 kts 80°
2026-04-27 01:03 34.84059 -98.48129 38716 ft 595 kts 79°
2026-04-27 01:03 34.85361 -98.38212 38729 ft 593 kts 80°
2026-04-27 01:04 34.86666 -98.28267 38695 ft 592 kts 80°
2026-04-27 01:04 34.87967 -98.18353 38703 ft 591 kts 80°
2026-04-27 01:05 34.89255 -98.08541 38713 ft 589 kts 80°
2026-04-27 01:05 34.90550 -97.98676 38724 ft 588 kts 80°
2026-04-27 01:06 34.91847 -97.88788 38736 ft 587 kts 80°
2026-04-27 01:06 34.93136 -97.78960 38731 ft 587 kts 80°
2026-04-27 01:07 34.94427 -97.69114 38747 ft 587 kts 80°
2026-04-27 01:07 34.95712 -97.59316 38739 ft 586 kts 80°
2026-04-27 01:08 34.97003 -97.49476 38750 ft 586 kts 80°
2026-04-27 01:08 34.98279 -97.39737 38753 ft 586 kts 80°
2026-04-27 01:09 34.99569 -97.29896 38724 ft 586 kts 81°
2026-04-27 01:09 35.00859 -97.20051 38742 ft 584 kts 81°
2026-04-27 01:10 35.02142 -97.10265 38741 ft 584 kts 81°
2026-04-27 01:10 35.03421 -97.00501 38743 ft 584 kts 80°
2026-04-27 01:11 35.04707 -96.90688 38746 ft 583 kts 80°
2026-04-27 01:11 35.05993 -96.80867 38745 ft 583 kts 79°
2026-04-27 01:12 35.07272 -96.71102 38750 ft 583 kts 79°
2026-04-27 01:12 35.08547 -96.61359 38753 ft 584 kts 80°
2026-04-27 01:13 35.09834 -96.51527 38763 ft 584 kts 79°
2026-04-27 01:13 35.11113 -96.41756 38781 ft 584 kts 79°
2026-04-27 01:14 35.12391 -96.31989 38769 ft 585 kts 80°
2026-04-27 01:14 35.13673 -96.22195 38769 ft 584 kts 80°
2026-04-27 01:15 35.14953 -96.12409 38760 ft 584 kts 79°
2026-04-27 01:15 35.16234 -96.02619 38765 ft 583 kts 79°
2026-04-27 01:16 35.17514 -95.92827 38767 ft 583 kts 79°
2026-04-27 01:16 35.18795 -95.83031 38769 ft 583 kts 79°
2026-04-27 01:17 35.20078 -95.73219 38770 ft 582 kts 79°
2026-04-27 01:17 35.21347 -95.63510 38772 ft 582 kts 79°
2026-04-27 01:18 35.22631 -95.53684 38771 ft 582 kts 79°
2026-04-27 01:18 35.23906 -95.43929 38782 ft 582 kts 79°
2026-04-27 01:19 35.25179 -95.34187 38783 ft 581 kts 79°
2026-04-27 01:19 35.26460 -95.24377 38771 ft 581 kts 79°
2026-04-27 01:20 35.27732 -95.14638 38773 ft 580 kts 79°
2026-04-27 01:20 35.29005 -95.04890 38779 ft 579 kts 78°
2026-04-27 01:21 35.30280 -94.95126 38784 ft 580 kts 78°
2026-04-27 01:21 35.31552 -94.85388 38787 ft 579 kts 78°
2026-04-27 01:22 35.32820 -94.75673 38792 ft 578 kts 78°
2026-04-27 01:22 35.34095 -94.65903 38796 ft 577 kts 78°
2026-04-27 01:23 35.35353 -94.56258 38802 ft 575 kts 78°
2026-04-27 01:23 35.36618 -94.46564 38805 ft 574 kts 78°
2026-04-27 01:24 35.37872 -94.36953 38809 ft 573 kts 78°
2026-04-27 01:24 35.39125 -94.27341 38793 ft 571 kts 78°
2026-04-27 01:25 35.40377 -94.17738 38805 ft 569 kts 78°
2026-04-27 01:25 35.41626 -94.08161 38807 ft 568 kts 78°
2026-04-27 01:26 35.42873 -93.98594 38815 ft 567 kts 78°
2026-04-27 01:26 35.44119 -93.89038 38826 ft 567 kts 78°
2026-04-27 01:27 35.45362 -93.79504 38832 ft 566 kts 78°
2026-04-27 01:27 35.46604 -93.69971 38837 ft 565 kts 77°
2026-04-27 01:28 35.47834 -93.60525 38844 ft 563 kts 77°
2026-04-27 01:28 35.49075 -93.51007 38844 ft 563 kts 77°
2026-04-27 01:29 35.50312 -93.41510 38847 ft 561 kts 77°
2026-04-27 01:29 35.51545 -93.32041 38845 ft 560 kts 78°
2026-04-27 01:30 35.52764 -93.22672 38853 ft 558 kts 78°
2026-04-27 01:30 35.53992 -93.13241 38863 ft 557 kts 78°
2026-04-27 01:31 35.55210 -93.03890 38852 ft 555 kts 78°
2026-04-27 01:31 35.56424 -92.94564 38869 ft 555 kts 78°
2026-04-27 01:32 35.57641 -92.85212 38870 ft 555 kts 77°
2026-04-27 01:32 35.58856 -92.75876 38879 ft 555 kts 77°
2026-04-27 01:33 35.60072 -92.66528 38888 ft 556 kts 77°
2026-04-27 01:33 35.61289 -92.57175 38880 ft 556 kts 77°
2026-04-27 01:34 35.62513 -92.47768 38883 ft 556 kts 77°
2026-04-27 01:34 35.63726 -92.38443 38889 ft 556 kts 77°
2026-04-27 01:35 35.64946 -92.29057 38882 ft 556 kts 78°
2026-04-27 01:35 35.66159 -92.19729 38882 ft 556 kts 78°
2026-04-27 01:36 35.67383 -92.10311 38887 ft 556 kts 78°
2026-04-27 01:36 35.68605 -92.00909 38892 ft 556 kts 77°
2026-04-27 01:37 35.69822 -91.91546 38898 ft 556 kts 77°
2026-04-27 01:37 35.71035 -91.82217 38903 ft 557 kts 77°
2026-04-27 01:38 35.72261 -91.72774 38891 ft 557 kts 77°
2026-04-27 01:38 35.73482 -91.63377 38900 ft 558 kts 77°
2026-04-27 01:39 35.74698 -91.54017 38902 ft 558 kts 77°
2026-04-27 01:39 35.75926 -91.44560 38901 ft 558 kts 77°
2026-04-27 01:40 35.77147 -91.35155 38913 ft 558 kts 77°
2026-04-27 01:40 35.78367 -91.25755 38889 ft 558 kts 77°
2026-04-27 01:41 35.79592 -91.16316 38876 ft 558 kts 77°
2026-04-27 01:41 35.80813 -91.06911 38896 ft 558 kts 77°